| time (UTC) | temp F | wind direction | speed knots | gust knots | rain 1hr in | rain 24hr in | rain mn in | humidity % | barometer mb |
| 20260903152029 | 67 | 236 | 4.3 | 7.0 | 0.00 | 0.00 | 0.00 | 74 | 1005.5 |
| 20260903151525 | 67 | 192 | 2.6 | 5.2 | 0.00 | 0.00 | 0.00 | 74 | 1005.4 |
| 20260903151025 | 67 | 232 | 0.9 | 4.3 | 0.00 | 0.00 | 0.00 | 74 | 1005.4 |
| 20260903150525 | 67 | 234 | 0.9 | 6.1 | 0.00 | 0.00 | 0.00 | 75 | 1005.5 |
| 20260903150027 | 67 | 234 | 3.5 | 6.1 | 0.00 | 0.00 | 0.00 | 75 | 1005.6 |
| 20260903145527 | 67 | 238 | 0.9 | 4.3 | 0.00 | 0.00 | 0.00 | 75 | 1005.5 |
| 20260903145029 | 67 | 239 | 2.6 | 4.3 | 0.00 | 0.00 | 0.00 | 75 | 1005.7 |
| 20260903144540 | 66 | 64 | 0.9 | 2.6 | 0.00 | 0.00 | 0.00 | 75 | 1005.5 |
| 20260903144025 | 66 | 53 | 0.0 | 2.6 | 0.00 | 0.00 | 0.00 | 76 | 1005.1 |
| 20260903143523 | 66 | 39 | 0.9 | 2.6 | 0.00 | 0.00 | 0.00 | 77 | 1004.7 |
| 20260903143038 | 65 | 16 | 0.0 | 2.6 | 0.00 | 0.00 | 0.00 | 77 | 1004.8 |
| 20260903142022 | 65 | 282 | 0.0 | 1.7 | 0.00 | 0.00 | 0.00 | 78 | 1005.1 |
| 20260903141523 | 65 | 282 | 0.0 | 1.7 | 0.00 | 0.00 | 0.00 | 78 | 1005.1 |
| 20260903141027 | 65 | 282 | 0.0 | 3.5 | 0.00 | 0.00 | 0.00 | 78 | 1005.3 |
| 20260903140522 | 64 | 281 | 0.9 | 3.5 | 0.00 | 0.00 | 0.00 | 78 | 1005.2 |
| 20260903140027 | 64 | 281 | 0.9 | 2.6 | 0.00 | 0.00 | 0.00 | 80 | 1005.2 |
| 20260903135520 | 64 | 292 | 0.9 | 2.6 | 0.00 | 0.00 | 0.00 | 80 | 1004.9 |
| 20260903135020 | 63 | 34 | 0.0 | 1.7 | 0.00 | 0.00 | 0.00 | 81 | 1004.3 |
| 20260903134519 | 63 | 38 | 0.0 | 0.9 | 0.00 | 0.00 | 0.00 | 81 | 1004.2 |
| 20260903134019 | 63 | 38 | 0.0 | 2.6 | 0.00 | 0.00 | 0.00 | 82 | 1004.1 |
| 20260903133524 | 63 | 37 | 0.9 | 2.6 | 0.00 | 0.00 | 0.00 | 82 | 1003.9 |
| 20260903133018 | 63 | 17 | 0.0 | 3.5 | 0.00 | 0.00 | 0.00 | 81 | 1003.9 |
| 20260903132618 | 63 | 11 | 1.7 | 6.1 | 0.00 | 0.00 | 0.00 | 81 | 1003.7 |
| 20260903132017 | 63 | 35 | 2.6 | 6.1 | 0.00 | 0.00 | 0.00 | 81 | 1003.6 |
| 20260903131517 | 63 | 51 | 2.6 | 6.1 | 0.00 | 0.00 | 0.00 | 80 | 1003.7 |
| 20260903131019 | 62 | 288 | 0.0 | 3.5 | 0.00 | 0.00 | 0.00 | 81 | 1004.2 |
| 20260903130516 | 62 | 286 | 1.7 | 3.5 | 0.00 | 0.00 | 0.00 | 81 | 1004.4 |
| 20260903130016 | 62 | 36 | 0.9 | 2.6 | 0.00 | 0.00 | 0.00 | 81 | 1003.8 |
| 20260903125516 | 62 | 36 | 0.0 | 1.7 | 0.00 | 0.00 | 0.00 | 81 | 1004.0 |
| 20260903125015 | 62 | 36 | 0.0 | 2.6 | 0.00 | 0.00 | 0.00 | 81 | 1004.0 |
| 20260903124514 | 62 | 36 | 0.0 | 2.6 | 0.00 | 0.00 | 0.00 | 81 | 1003.8 |
| 20260903124014 | 62 | 36 | 0.0 | 0.0 | 0.00 | 0.00 | 0.00 | 80 | 1003.9 |
| 20260903123514 | 62 | 36 | 0.0 | 0.0 | 0.00 | 0.00 | 0.00 | 81 | 1003.9 |
| 20260903123014 | 61 | 36 | 0.0 | 0.0 | 0.00 | 0.00 | 0.00 | 81 | 1003.7 |
| 20260903122017 | 62 | 36 | 0.0 | 0.0 | 0.00 | 0.00 | 0.00 | 80 | 1003.9 |
| 20260903121528 | 62 | 36 | 0.0 | 0.0 | 0.00 | 0.00 | 0.00 | 80 | 1003.8 |
| 20260903121015 | 62 | 36 | 0.0 | 0.0 | 0.00 | 0.00 | 0.00 | 80 | 1003.7 |
| 20260903120515 | 62 | 36 | 0.0 | 0.0 | 0.00 | 0.00 | 0.00 | 79 | 1003.8 |
| 20260903120030 | 62 | 36 | 0.0 | 2.6 | 0.00 | 0.00 | 0.00 | 79 | 1003.9 |
| 20260903115513 | 62 | 36 | 0.9 | 2.6 | 0.00 | 0.00 | 0.00 | 78 | 1003.7 |
| 20260903115016 | 63 | 36 | 0.0 | 2.6 | 0.00 | 0.00 | 0.00 | 78 | 1003.7 |
| 20260903114511 | 63 | 37 | 0.9 | 3.5 | 0.00 | 0.00 | 0.00 | 77 | 1003.7 |
| 20260903114010 | 63 | 37 | 0.9 | 3.5 | 0.00 | 0.00 | 0.00 | 77 | 1003.7 |
| 20260903113510 | 63 | 20 | 0.9 | 6.1 | 0.00 | 0.00 | 0.00 | 77 | 1003.6 |
| 20260903113018 | 63 | 32 | 1.7 | 4.3 | 0.00 | 0.00 | 0.00 | 77 | 1003.4 |
| 20260903112014 | 64 | 31 | 1.7 | 4.3 | 0.00 | 0.00 | 0.00 | 75 | 1003.6 |
| 20260903111511 | 64 | 16 | 0.9 | 3.5 | 0.00 | 0.00 | 0.00 | 74 | 1003.5 |
| 20260903111012 | 65 | 16 | 1.7 | 4.3 | 0.00 | 0.00 | 0.00 | 74 | 1003.5 |
| 20260903110510 | 65 | 15 | 1.7 | 5.2 | 0.00 | 0.00 | 0.00 | 74 | 1003.5 |
| 20260903110010 | 65 | 46 | 2.6 | 5.2 | 0.00 | 0.00 | 0.00 | 74 | 1003.6 |
| 20260903105507 | 65 | 9 | 2.6 | 7.8 | 0.00 | 0.00 | 0.00 | 73 | 1003.4 |
| 20260903105007 | 65 | 44 | 3.5 | 7.8 | 0.00 | 0.00 | 0.00 | 73 | 1003.3 |
| 20260903104507 | 65 | 42 | 2.6 | 7.8 | 0.00 | 0.00 | 0.00 | 73 | 1003.2 |
| 20260903104006 | 65 | 38 | 4.3 | 9.6 | 0.00 | 0.00 | 0.00 | 73 | 1003.2 |
| 20260903103507 | 64 | 48 | 4.3 | 7.8 | 0.00 | 0.00 | 0.00 | 73 | 1003.1 |
| 20260903103006 | 64 | 51 | 4.3 | 7.8 | 0.00 | 0.00 | 0.00 | 73 | 1003.1 |
| 20260903102002 | 64 | 26 | 2.6 | 7.0 | 0.00 | 0.00 | 0.00 | 73 | 1003.2 |
| 20260903101503 | 64 | 58 | 2.6 | 7.0 | 0.00 | 0.00 | 0.00 | 73 | 1002.8 |
| 20260903101001 | 64 | 34 | 2.6 | 7.0 | 0.00 | 0.00 | 0.00 | 73 | 1002.7 |
| 20260903100502 | 64 | 27 | 3.5 | 7.8 | 0.00 | 0.00 | 0.00 | 73 | 1002.7 |
| 20260903100003 | 64 | 58 | 4.3 | 7.8 | 0.00 | 0.00 | 0.00 | 73 | 1002.4 |
| 20260903095559 | 64 | 52 | 3.5 | 6.1 | 0.00 | 0.00 | 0.00 | 72 | 1002.6 |
| 20260903095101 | 65 | 32 | 2.6 | 5.2 | 0.00 | 0.00 | 0.00 | 71 | 1002.9 |
| 20260903094558 | 65 | 38 | 2.6 | 5.2 | 0.00 | 0.00 | 0.00 | 70 | 1003.0 |
| 20260903094056 | 65 | 46 | 1.7 | 5.2 | 0.00 | 0.00 | 0.00 | 69 | 1003.0 |
| 20260903093555 | 66 | 39 | 2.6 | 8.7 | 0.00 | 0.00 | 0.00 | 69 | 1002.7 |
| 20260903093053 | 66 | 19 | 2.6 | 8.7 | 0.00 | 0.00 | 0.00 | 68 | 1002.5 |
| 20260903092654 | 67 | 48 | 4.3 | 9.6 | 0.00 | 0.00 | 0.00 | 68 | 1002.5 |
| 20260903092055 | 67 | 36 | 4.3 | 8.7 | 0.00 | 0.00 | 0.00 | 67 | 1002.3 |
| 20260903091557 | 67 | 44 | 3.5 | 9.6 | 0.00 | 0.00 | 0.00 | 67 | 1002.5 |
| 20260903091053 | 68 | 36 | 4.3 | 12.2 | 0.00 | 0.00 | 0.00 | 66 | 1002.6 |
| 20260903090550 | 68 | 42 | 7.8 | 12.2 | 0.00 | 0.00 | 0.00 | 66 | 1002.5 |
| 20260903090050 | 69 | 42 | 5.2 | 9.6 | 0.00 | 0.00 | 0.00 | 67 | 1002.5 |
| 20260903090014 | 69 | 49 | 4.3 | 9.6 | 0.00 | 0.00 | 0.00 | 68 | 1002.4 |
| 20260903085549 | 69 | 65 | 4.3 | 11.3 | 0.00 | 0.00 | 0.00 | 70 | 1002.5 |
| 20260903085049 | 68 | 5 | 4.3 | 11.3 | 0.00 | 0.00 | 0.00 | 68 | 1002.4 |
| 20260903084551 | 68 | 26 | 3.5 | 7.0 | 0.00 | 0.00 | 0.00 | 67 | 1002.6 |
| 20260903084049 | 68 | 10 | 3.5 | 9.6 | 0.00 | 0.00 | 0.00 | 67 | 1002.8 |
| 20260903083548 | 68 | 11 | 5.2 | 11.3 | 0.00 | 0.00 | 0.00 | 67 | 1002.8 |
| 20260903083047 | 68 | 30 | 5.2 | 12.2 | 0.00 | 0.00 | 0.00 | 66 | 1002.8 |
| 20260903082647 | 69 | 10 | 1.7 | 11.3 | 0.00 | 0.00 | 0.00 | 67 | 1002.9 |
| 20260903082045 | 69 | 355 | 1.7 | 11.3 | 0.00 | 0.00 | 0.00 | 67 | 1003.0 |
| 20260903081545 | 69 | 5 | 5.2 | 11.3 | 0.00 | 0.00 | 0.00 | 67 | 1003.0 |
| 20260903081042 | 70 | 302 | 1.7 | 7.8 | 0.00 | 0.00 | 0.00 | 63 | 1003.1 |
| 20260903080544 | 72 | 15 | 1.7 | 6.1 | 0.00 | 0.00 | 0.00 | 62 | 1003.1 |
| 20260903080041 | 73 | 42 | 0.9 | 2.6 | 0.00 | 0.00 | 0.00 | 71 | 1003.3 |
| 20260903075542 | 73 | 26 | 0.0 | 2.6 | 0.00 | 0.00 | 0.00 | 71 | 1003.3 |
| 20260903075043 | 73 | 26 | 0.0 | 3.5 | 0.00 | 0.00 | 0.00 | 70 | 1003.3 |
| 20260903074541 | 73 | 22 | 1.7 | 3.5 | 0.00 | 0.00 | 0.00 | 70 | 1003.2 |
| 20260903074040 | 73 | 40 | 0.0 | 4.3 | 0.00 | 0.00 | 0.00 | 69 | 1003.4 |
| 20260903073542 | 74 | 38 | 1.7 | 4.3 | 0.00 | 0.00 | 0.00 | 69 | 1003.4 |
| 20260903073039 | 74 | 316 | 0.0 | 4.3 | 0.00 | 0.00 | 0.00 | 70 | 1003.4 |
| 20260903072638 | 73 | 311 | 3.5 | 7.8 | 0.00 | 0.00 | 0.00 | 71 | 1003.2 |
| 20260903072041 | 73 | 46 | 4.3 | 7.8 | 0.00 | 0.00 | 0.00 | 71 | 1003.1 |
| 20260903071552 | 72 | 24 | 0.9 | 5.2 | 0.00 | 0.00 | 0.00 | 71 | 1003.1 |
| 20260903071038 | 72 | 355 | 0.9 | 6.1 | 0.00 | 0.00 | 0.00 | 71 | 1003.3 |
| 20260903070537 | 72 | 286 | 1.7 | 3.5 | 0.00 | 0.00 | 0.00 | 71 | 1003.4 |
| 20260903070036 | 72 | 267 | 0.0 | 2.6 | 0.00 | 0.00 | 0.00 | 71 | 1002.9 |
| 20260903065538 | 72 | 267 | 0.0 | 3.5 | 0.00 | 0.00 | 0.00 | 70 | 1002.8 |
| 20260903065036 | 73 | 264 | 0.9 | 7.8 | 0.00 | 0.00 | 0.00 | 70 | 1003.0 |
| 20260903064537 | 73 | 262 | 1.7 | 10.4 | 0.00 | 0.00 | 0.00 | 70 | 1003.0 |
| 20260903064033 | 73 | 194 | 5.2 | 13.0 | 0.00 | 0.00 | 0.00 | 70 | 1002.8 |
| 20260903063532 | 73 | 178 | 4.3 | 13.9 | 0.00 | 0.00 | 0.00 | 69 | 1002.2 |
| 20260903063032 | 73 | 121 | 7.0 | 15.6 | 0.00 | 0.00 | 0.00 | 69 | 1001.9 |
| 20260903062632 | 73 | 124 | 9.6 | 13.0 | 0.00 | 0.00 | 0.00 | 69 | 1001.7 |
| 20260903062034 | 73 | 132 | 7.8 | 13.0 | 0.00 | 0.00 | 0.00 | 69 | 1001.8 |
| 20260903061534 | 74 | 132 | 9.6 | 13.9 | 0.00 | 0.00 | 0.00 | 69 | 1001.8 |
| 20260903061036 | 74 | 165 | 8.7 | 13.9 | 0.00 | 0.00 | 0.00 | 69 | 1001.8 |
| 20260903060534 | 74 | 139 | 6.1 | 11.3 | 0.00 | 0.00 | 0.00 | 69 | 1001.9 |
| 20260903060033 | 74 | 122 | 6.1 | 12.2 | 0.00 | 0.00 | 0.00 | 68 | 1002.0 |
| 20260903055533 | 73 | 185 | 4.3 | 10.4 | 0.00 | 0.00 | 0.00 | 68 | 1002.0 |
| 20260903055033 | 73 | 188 | 2.6 | 10.4 | 0.00 | 0.00 | 0.00 | 68 | 1002.2 |
| 20260903054535 | 74 | 182 | 3.5 | 13.9 | 0.00 | 0.00 | 0.00 | 67 | 1002.1 |
| 20260903054036 | 74 | 117 | 6.1 | 16.5 | 0.00 | 0.00 | 0.00 | 67 | 1001.7 |
| 20260903053534 | 74 | 115 | 8.7 | 16.5 | 0.00 | 0.00 | 0.00 | 67 | 1001.2 |
| 20260903053035 | 74 | 89 | 11.3 | 16.5 | 0.00 | 0.00 | 0.00 | 67 | 1001.5 |
| 20260903052632 | 74 | 134 | 9.6 | 16.5 | 0.00 | 0.00 | 0.00 | 67 | 1001.6 |
| 20260903052034 | 74 | 136 | 8.7 | 14.8 | 0.00 | 0.00 | 0.00 | 67 | 1001.5 |
| 20260903051552 | 74 | 123 | 7.8 | 14.8 | 0.00 | 0.00 | 0.00 | 67 | 1001.5 |
| 20260903051033 | 74 | 138 | 8.7 | 13.9 | 0.00 | 0.00 | 0.00 | 67 | 1001.3 |
| 20260903050537 | 74 | 107 | 7.0 | 12.2 | 0.00 | 0.00 | 0.00 | 67 | 1001.2 |
| 20260903050033 | 74 | 111 | 7.0 | 12.2 | 0.00 | 0.00 | 0.00 | 67 | 1001.4 |
| 20260903045532 | 74 | 117 | 5.2 | 11.3 | 0.00 | 0.00 | 0.00 | 67 | 1001.6 |
| 20260903045031 | 74 | 102 | 5.2 | 11.3 | 0.00 | 0.00 | 0.00 | 66 | 1002.0 |
| 20260903044539 | 74 | 106 | 4.3 | 10.4 | 0.00 | 0.00 | 0.00 | 66 | 1002.0 |
| 20260903044030 | 74 | 136 | 4.3 | 10.4 | 0.00 | 0.00 | 0.00 | 66 | 1002.7 |
| 20260903043532 | 75 | 94 | 5.2 | 10.4 | 0.00 | 0.00 | 0.00 | 66 | 1002.7 |
| 20260903043107 | 75 | 125 | 4.3 | 9.6 | 0.00 | 0.00 | 0.00 | 66 | 1003.0 |
| 20260903042027 | 75 | 144 | 2.6 | 10.4 | 0.00 | 0.00 | 0.00 | 65 | 1002.8 |
| 20260903041527 | 76 | 105 | 4.3 | 10.4 | 0.00 | 0.00 | 0.00 | 65 | 1002.9 |
| 20260903041025 | 76 | 85 | 4.3 | 11.3 | 0.00 | 0.00 | 0.00 | 64 | 1003.0 |
| 20260903040525 | 76 | 127 | 5.2 | 11.3 | 0.00 | 0.00 | 0.00 | 64 | 1002.9 |
| 20260903040026 | 76 | 114 | 6.1 | 14.8 | 0.00 | 0.00 | 0.00 | 64 | 1002.9 |
| 20260903035525 | 76 | 140 | 5.2 | 14.8 | 0.00 | 0.00 | 0.00 | 63 | 1003.0 |
| 20260903035027 | 76 | 121 | 8.7 | 13.9 | 0.00 | 0.00 | 0.00 | 63 | 1002.9 |
| 20260903034536 | 76 | 118 | 6.1 | 15.6 | 0.00 | 0.00 | 0.00 | 63 | 1002.7 |
| 20260903034025 | 77 | 116 | 7.8 | 14.8 | 0.00 | 0.00 | 0.00 | 63 | 1002.9 |
| 20260903033524 | 77 | 92 | 8.7 | 14.8 | 0.00 | 0.00 | 0.00 | 63 | 1002.8 |
| 20260903033026 | 77 | 94 | 6.1 | 12.2 | 0.00 | 0.00 | 0.00 | 63 | 1002.9 |
| 20260903032625 | 77 | 113 | 5.2 | 12.2 | 0.00 | 0.00 | 0.00 | 63 | 1002.9 |
| 20260903032026 | 77 | 138 | 5.2 | 12.2 | 0.00 | 0.00 | 0.00 | 63 | 1002.8 |
| 20260903031523 | 77 | 111 | 6.1 | 13.0 | 0.00 | 0.00 | 0.00 | 63 | 1002.9 |
| 20260903031025 | 77 | 98 | 5.2 | 14.8 | 0.00 | 0.00 | 0.00 | 63 | 1002.8 |
| 20260903030523 | 77 | 124 | 9.6 | 13.9 | 0.00 | 0.00 | 0.00 | 63 | 1002.8 |
| 20260903030023 | 77 | 114 | 6.1 | 15.6 | 0.00 | 0.00 | 0.00 | 63 | 1002.7 |
| 20260903025524 | 78 | 134 | 8.7 | 13.9 | 0.00 | 0.00 | 0.00 | 63 | 1002.8 |
| 20260903025022 | 78 | 148 | 8.7 | 17.4 | 0.00 | 0.00 | 0.00 | 63 | 1003.0 |
| 20260903024525 | 78 | 113 | 7.8 | 17.4 | 0.00 | 0.00 | 0.00 | 62 | 1002.8 |
| 20260903024022 | 78 | 126 | 7.8 | 15.6 | 0.00 | 0.00 | 0.00 | 62 | 1002.7 |
| 20260903023521 | 78 | 152 | 8.7 | 15.6 | 0.00 | 0.00 | 0.00 | 62 | 1002.8 |
| 20260903023021 | 78 | 126 | 6.1 | 13.9 | 0.00 | 0.00 | 0.00 | 62 | 1002.7 |
| 20260903022621 | 79 | 88 | 6.1 | 13.9 | 0.00 | 0.00 | 0.00 | 61 | 1002.8 |
| 20260903022022 | 79 | 175 | 6.1 | 13.9 | 0.00 | 0.00 | 0.00 | 61 | 1002.9 |
| 20260903021522 | 79 | 142 | 6.1 | 13.9 | 0.00 | 0.00 | 0.00 | 61 | 1002.9 |
| 20260903021021 | 79 | 91 | 5.2 | 13.9 | 0.00 | 0.00 | 0.00 | 60 | 1002.7 |
| 20260903020521 | 79 | 152 | 6.1 | 14.8 | 0.00 | 0.00 | 0.00 | 60 | 1002.7 |
| 20260903020024 | 79 | 130 | 3.5 | 13.0 | 0.00 | 0.00 | 0.00 | 59 | 1002.8 |
| 20260903015524 | 80 | 119 | 7.0 | 13.0 | 0.00 | 0.00 | 0.00 | 59 | 1002.7 |
| 20260903015021 | 80 | 135 | 7.0 | 11.3 | 0.00 | 0.00 | 0.00 | 59 | 1002.8 |
| 20260903014523 | 80 | 137 | 6.1 | 14.8 | 0.00 | 0.00 | 0.00 | 58 | 1002.7 |
| 20260903014020 | 80 | 119 | 7.8 | 14.8 | 0.00 | 0.00 | 0.00 | 58 | 1002.6 |
| 20260903013523 | 81 | 105 | 7.0 | 12.2 | 0.00 | 0.00 | 0.00 | 57 | 1002.6 |
| 20260903013022 | 81 | 126 | 6.1 | 12.2 | 0.00 | 0.00 | 0.00 | 57 | 1002.5 |
| 20260903012620 | 81 | 108 | 5.2 | 13.0 | 0.00 | 0.00 | 0.00 | 56 | 1002.6 |
| 20260903012020 | 82 | 116 | 6.1 | 13.0 | 0.00 | 0.00 | 0.00 | 56 | 1002.6 |
| 20260903011523 | 82 | 120 | 8.7 | 13.9 | 0.00 | 0.00 | 0.00 | 55 | 1002.7 |
| 20260903011019 | 82 | 126 | 7.8 | 13.9 | 0.00 | 0.00 | 0.00 | 54 | 1002.6 |
| 20260903010523 | 83 | 114 | 6.1 | 13.0 | 0.00 | 0.00 | 0.00 | 53 | 1002.6 |
| 20260903010020 | 83 | 107 | 7.0 | 14.8 | 0.00 | 0.00 | 0.00 | 51 | 1002.7 |
| 20260903005520 | 84 | 123 | 8.7 | 14.8 | 0.00 | 0.00 | 0.00 | 49 | 1002.6 |
| 20260903005020 | 84 | 130 | 9.6 | 14.8 | 0.00 | 0.00 | 0.00 | 49 | 1002.8 |
| 20260903004519 | 84 | 132 | 9.6 | 16.5 | 0.00 | 0.00 | 0.00 | 49 | 1002.7 |
| 20260903004019 | 84 | 128 | 12.2 | 16.5 | 0.00 | 0.00 | 0.00 | 50 | 1002.7 |
| 20260903003520 | 84 | 130 | 12.2 | 16.5 | 0.00 | 0.00 | 0.00 | 50 | 1002.5 |
| 20260903003022 | 84 | 138 | 7.0 | 15.6 | 0.00 | 0.00 | 0.00 | 50 | 1002.5 |
| 20260903002619 | 85 | 92 | 7.0 | 14.8 | 0.00 | 0.00 | 0.00 | 49 | 1002.4 |
| 20260903002015 | 85 | 126 | 7.8 | 14.8 | 0.00 | 0.00 | 0.00 | 48 | 1002.5 |
| 20260903001517 | 85 | 114 | 10.4 | 14.8 | 0.00 | 0.00 | 0.00 | 47 | 1002.5 |
| 20260903001015 | 85 | 134 | 8.7 | 14.8 | 0.00 | 0.00 | 0.00 | 47 | 1002.7 |
| 20260903000515 | 85 | 120 | 9.6 | 14.8 | 0.00 | 0.00 | 0.00 | 47 | 1002.8 |
| 20260903000014 | 86 | 138 | 9.6 | 14.8 | 0.00 | 0.00 | 0.00 | 47 | 1002.6 |
| 20260902235514 | 85 | 144 | 7.0 | 14.8 | 0.00 | 0.00 | 0.00 | 48 | 1002.8 |
| 20260902235018 | 85 | 140 | 9.6 | 15.6 | 0.00 | 0.00 | 0.00 | 48 | 1002.7 |
| 20260902234521 | 85 | 128 | 7.8 | 15.6 | 0.00 | 0.00 | 0.00 | 49 | 1002.7 |
| 20260902234014 | 84 | 127 | 8.7 | 15.6 | 0.00 | 0.00 | 0.00 | 48 | 1002.6 |
| 20260902233513 | 84 | 136 | 7.8 | 15.6 | 0.00 | 0.00 | 0.00 | 48 | 1002.7 |
| 20260902233012 | 84 | 134 | 11.3 | 15.6 | 0.00 | 0.00 | 0.00 | 48 | 1002.7 |
| 20260902232615 | 85 | 127 | 7.8 | 13.9 | 0.00 | 0.00 | 0.00 | 48 | 1002.7 |
| 20260902232013 | 85 | 165 | 7.8 | 13.9 | 0.00 | 0.00 | 0.00 | 48 | 1002.8 |
| 20260902231514 | 85 | 142 | 9.6 | 17.4 | 0.00 | 0.00 | 0.00 | 47 | 1002.8 |
| 20260902231013 | 85 | 104 | 9.6 | 20.0 | 0.00 | 0.00 | 0.00 | 47 | 1002.9 |
| 20260902230511 | 86 | 146 | 13.0 | 20.0 | 0.00 | 0.00 | 0.00 | 45 | 1002.9 |
| 20260902230012 | 87 | 140 | 11.3 | 17.4 | 0.00 | 0.00 | 0.00 | 45 | 1002.8 |
| 20260902225512 | 87 | 155 | 11.3 | 17.4 | 0.00 | 0.00 | 0.00 | 45 | 1002.9 |
| 20260902225012 | 87 | 140 | 11.3 | 16.5 | 0.00 | 0.00 | 0.00 | 45 | 1002.9 |
| 20260902224511 | 87 | 129 | 10.4 | 20.9 | 0.00 | 0.00 | 0.00 | 45 | 1003.0 |
| 20260902224011 | 87 | 149 | 10.4 | 20.9 | 0.00 | 0.00 | 0.00 | 45 | 1002.9 |
| 20260902223514 | 87 | 124 | 9.6 | 15.6 | 0.00 | 0.00 | 0.00 | 44 | 1002.8 |
| 20260902223021 | 87 | 127 | 10.4 | 18.2 | 0.00 | 0.00 | 0.00 | 44 | 1002.8 |
| 20260902222612 | 87 | 172 | 10.4 | 14.8 | 0.00 | 0.00 | 0.00 | 43 | 1003.0 |
| 20260902222037 | 87 | 176 | 10.4 | 14.8 | 0.00 | 0.00 | 0.00 | 43 | 1003.0 |
| 20260902221530 | 88 | 140 | 8.7 | 16.5 | 0.00 | 0.00 | 0.00 | 43 | 1002.9 |
| 20260902221029 | 87 | 115 | 8.7 | 16.5 | 0.00 | 0.00 | 0.00 | 44 | 1003.0 |
| 20260902220532 | 87 | 153 | 10.4 | 18.2 | 0.00 | 0.00 | 0.00 | 44 | 1003.0 |
| 20260902220029 | 87 | 138 | 10.4 | 18.2 | 0.00 | 0.00 | 0.00 | 43 | 1003.1 |
| 20260902215530 | 87 | 165 | 9.6 | 15.6 | 0.00 | 0.00 | 0.00 | 45 | 1003.0 |
| 20260902215028 | 87 | 146 | 13.0 | 15.6 | 0.00 | 0.00 | 0.00 | 44 | 1003.1 |
| 20260902214527 | 87 | 143 | 9.6 | 16.5 | 0.00 | 0.00 | 0.00 | 44 | 1003.4 |
| 20260902214033 | 88 | 138 | 10.4 | 15.6 | 0.00 | 0.00 | 0.00 | 44 | 1003.3 |
| 20260902213525 | 87 | 126 | 8.7 | 18.2 | 0.00 | 0.00 | 0.00 | 45 | 1003.4 |
| 20260902213029 | 87 | 136 | 10.4 | 18.2 | 0.00 | 0.00 | 0.00 | 46 | 1003.5 |
| 20260902212524 | 87 | 134 | 9.6 | 19.1 | 0.00 | 0.00 | 0.00 | 46 | 1003.6 |
| 20260902212006 | 87 | 145 | 8.7 | 19.1 | 0.00 | 0.00 | 0.00 | 45 | 1003.7 |
| 20260902211505 | 87 | 140 | 11.3 | 16.5 | 0.00 | 0.00 | 0.00 | 45 | 1003.8 |
| 20260902211007 | 86 | 169 | 11.3 | 16.5 | 0.00 | 0.00 | 0.00 | 46 | 1003.7 |
| 20260902210503 | 87 | 140 | 11.3 | 18.2 | 0.00 | 0.00 | 0.00 | 46 | 1003.9 |
| 20260902210003 | 87 | 146 | 9.6 | 18.2 | 0.00 | 0.00 | 0.00 | 45 | 1003.8 |
| 20260902205504 | 87 | 131 | 9.6 | 16.5 | 0.00 | 0.00 | 0.00 | 46 | 1003.8 |
| 20260902205002 | 87 | 146 | 8.7 | 18.2 | 0.00 | 0.00 | 0.00 | 47 | 1004.0 |
| 20260902204600 | 86 | 113 | 10.4 | 18.2 | 0.00 | 0.00 | 0.00 | 46 | 1004.0 |
| 20260902204058 | 86 | 146 | 8.7 | 18.2 | 0.00 | 0.00 | 0.00 | 46 | 1004.2 |
| 20260902203601 | 86 | 117 | 13.9 | 18.2 | 0.00 | 0.00 | 0.00 | 47 | 1004.3 |
| 20260902203105 | 86 | 150 | 8.7 | 20.0 | 0.00 | 0.00 | 0.00 | 48 | 1004.3 |
| 20260902202556 | 86 | 138 | 11.3 | 19.1 | 0.00 | 0.00 | 0.00 | 48 | 1004.6 |
| 20260902201607 | 86 | 146 | 11.3 | 18.2 | 0.00 | 0.00 | 0.00 | 47 | 1004.6 |
| 20260902201103 | 86 | 137 | 7.8 | 18.2 | 0.00 | 0.00 | 0.00 | 48 | 1004.5 |
| 20260902200559 | 85 | 94 | 12.2 | 18.2 | 0.00 | 0.00 | 0.00 | 48 | 1004.7 |
| 20260902200133 | 85 | 132 | 11.3 | 18.2 | 0.00 | 0.00 | 0.00 | 49 | 1004.8 |
| 20260902195557 | 85 | 140 | 11.3 | 18.2 | 0.00 | 0.00 | 0.00 | 49 | 1004.7 |
| 20260902195055 | 85 | 170 | 9.6 | 18.2 | 0.00 | 0.00 | 0.00 | 49 | 1004.9 |
| 20260902194555 | 85 | 136 | 9.6 | 20.0 | 0.00 | 0.00 | 0.00 | 49 | 1004.9 |
| 20260902194056 | 85 | 155 | 11.3 | 20.9 | 0.00 | 0.00 | 0.00 | 50 | 1005.0 |
| 20260902193552 | 84 | 136 | 8.7 | 18.2 | 0.00 | 0.00 | 0.00 | 50 | 1005.0 |
| 20260902193051 | 85 | 149 | 9.6 | 17.4 | 0.00 | 0.00 | 0.00 | 50 | 1005.1 |
| 20260902192549 | 84 | 150 | 9.6 | 19.1 | 0.00 | 0.00 | 0.00 | 51 | 1005.1 |
| 20260902192019 | 84 | 109 | 10.4 | 19.1 | 0.00 | 0.00 | 0.00 | 51 | 1005.1 |
| 20260902191517 | 84 | 148 | 12.2 | 22.6 | 0.00 | 0.00 | 0.00 | 51 | 1005.4 |
| 20260902191015 | 84 | 138 | 13.9 | 22.6 | 0.00 | 0.00 | 0.00 | 52 | 1005.4 |
| 20260902190514 | 84 | 107 | 11.3 | 21.7 | 0.00 | 0.00 | 0.00 | 51 | 1005.6 |
| 20260902190024 | 83 | 167 | 13.0 | 21.7 | 0.00 | 0.00 | 0.00 | 52 | 1005.6 |
| 20260902185513 | 84 | 140 | 13.9 | 24.3 | 0.00 | 0.00 | 0.00 | 51 | 1005.7 |
| 20260902185013 | 84 | 150 | 13.9 | 22.6 | 0.00 | 0.00 | 0.00 | 52 | 1005.6 |
| 20260902184510 | 83 | 132 | 11.3 | 19.1 | 0.00 | 0.00 | 0.00 | 52 | 1005.8 |
| 20260902184009 | 81 | 136 | 9.6 | 20.0 | 0.00 | 0.00 | 0.00 | 54 | 1006.0 |
| 20260902183508 | 82 | 123 | 11.3 | 20.0 | 0.00 | 0.00 | 0.00 | 54 | 1006.0 |
| 20260902183008 | 82 | 138 | 13.0 | 23.5 | 0.00 | 0.00 | 0.00 | 53 | 1006.2 |
| 20260902182607 | 82 | 131 | 9.6 | 19.1 | 0.00 | 0.00 | 0.00 | 53 | 1006.1 |
| 20260902181535 | 82 | 136 | 12.2 | 20.0 | 0.00 | 0.00 | 0.00 | 54 | 1006.3 |
| 20260902181034 | 82 | 140 | 10.4 | 20.9 | 0.00 | 0.00 | 0.00 | 53 | 1006.3 |
| 20260902180534 | 82 | 219 | 10.4 | 20.9 | 0.00 | 0.00 | 0.00 | 54 | 1006.4 |
| 20260902180033 | 81 | 137 | 11.3 | 18.2 | 0.00 | 0.00 | 0.00 | 54 | 1006.5 |
| 20260902175532 | 81 | 103 | 12.2 | 21.7 | 0.00 | 0.00 | 0.00 | 55 | 1006.7 |
| 20260902175034 | 81 | 134 | 13.9 | 21.7 | 0.00 | 0.00 | 0.00 | 55 | 1006.6 |
| 20260902174531 | 81 | 132 | 13.9 | 20.0 | 0.00 | 0.00 | 0.00 | 55 | 1006.6 |
| 20260902174031 | 81 | 134 | 12.2 | 19.1 | 0.00 | 0.00 | 0.00 | 55 | 1006.8 |
| 20260902173530 | 81 | 135 | 11.3 | 16.5 | 0.00 | 0.00 | 0.00 | 57 | 1006.9 |
| 20260902173029 | 80 | 152 | 7.8 | 19.1 | 0.00 | 0.00 | 0.00 | 57 | 1006.9 |
| 20260902172527 | 80 | 140 | 10.4 | 19.1 | 0.00 | 0.00 | 0.00 | 58 | 1006.9 |
| 20260902171531 | 79 | 128 | 11.3 | 19.1 | 0.00 | 0.00 | 0.00 | 59 | 1007.2 |
| 20260902171030 | 79 | 154 | 10.4 | 18.2 | 0.00 | 0.00 | 0.00 | 60 | 1007.0 |
| 20260902170533 | 79 | 130 | 12.2 | 18.2 | 0.00 | 0.00 | 0.00 | 60 | 1007.2 |
| 20260902170029 | 78 | 136 | 11.3 | 17.4 | 0.00 | 0.00 | 0.00 | 61 | 1007.3 |
| 20260902165528 | 78 | 119 | 9.6 | 17.4 | 0.00 | 0.00 | 0.00 | 60 | 1007.5 |
| 20260902165027 | 78 | 144 | 11.3 | 18.2 | 0.00 | 0.00 | 0.00 | 60 | 1007.3 |
| 20260902164527 | 78 | 137 | 13.0 | 18.2 | 0.00 | 0.00 | 0.00 | 60 | 1007.3 |
| 20260902164026 | 78 | 123 | 7.8 | 14.8 | 0.00 | 0.00 | 0.00 | 61 | 1007.3 |
| 20260902163526 | 78 | 130 | 9.6 | 14.8 | 0.00 | 0.00 | 0.00 | 61 | 1007.3 |
| 20260902163025 | 77 | 169 | 7.0 | 14.8 | 0.00 | 0.00 | 0.00 | 62 | 1007.5 |
| 20260902162624 | 76 | 140 | 9.6 | 14.8 | 0.00 | 0.00 | 0.00 | 63 | 1007.5 |
| 20260902161519 | 75 | 138 | 8.7 | 15.6 | 0.00 | 0.00 | 0.00 | 67 | 1007.6 |
| 20260902161018 | 74 | 121 | 10.4 | 15.6 | 0.00 | 0.00 | 0.00 | 67 | 1007.7 |
| 20260902160516 | 74 | 141 | 8.7 | 13.0 | 0.00 | 0.00 | 0.00 | 68 | 1007.8 |
| 20260902160017 | 73 | 142 | 7.8 | 13.0 | 0.00 | 0.00 | 0.00 | 68 | 1007.7 |
| 20260902155515 | 73 | 136 | 7.8 | 12.2 | 0.00 | 0.00 | 0.00 | 68 | 1007.9 |
| 20260902155014 | 73 | 140 | 6.1 | 12.2 | 0.00 | 0.00 | 0.00 | 70 | 1007.8 |
| 20260902154512 | 72 | 175 | 5.2 | 12.2 | 0.00 | 0.00 | 0.00 | 71 | 1008.0 |
| 20260902154011 | 72 | 141 | 7.0 | 11.3 | 0.00 | 0.00 | 0.00 | 72 | 1008.2 |
| 20260902153510 | 71 | 141 | 6.1 | 13.0 | 0.00 | 0.00 | 0.00 | 73 | 1008.3 |
| 20260902153009 | 70 | 159 | 5.2 | 11.3 | 0.00 | 0.00 | 0.00 | 73 | 1008.5 |